167  
ASUS41 KAKQ 071917  
RWRAKQ  
 
REGIONAL WEATHER ROUNDUP  
NATIONAL WEATHER SERVICE WAKEFIELD VA  
300 PM EDT TUE JUL 07 2020  
 
NOTE: "FAIR" INDICATES FEW OR NO CLOUDS BELOW 12,000 FEET WITH NO  
SIGNIFICANT WEATHER AND/OR S TO VISIBILITY
. * = DENOTES  
STATION MAY NOT REPORT PRECIPITATION (E.G., RAIN,SNOW,ETC.),
 
THUNDER OR FOG.  
 
VAZ042-051-052>054-056-072000-  
NORTHERN VIRGINIA  
 
CITY SKY/WX TMP DP RH WIND PRES REMARKS
 
WASH NATIONAL PTSUNNY 86 73 65 SE7 30.04F  
DULLES MOSUNNY 85 72 65 E6 30.04F  
FORT BELVOIR SUNNY 87 74 64 SE3 30.03F HX 96  
QUANTICO MOSUNNY 88 74 63 NE7 30.03F HX 96  
FREDERICKSBRG* CLOUDY 91 71 51 SW5 30.01F HX 97  
STAFFORD* MOSUNNY 88 73 60 W6 30.07S HX 95  
WARRENTON MOSUNNY 91 67 44 S3 30.03F HX 95  
CULPEPER* PTSUNNY 91 73 54 CALM 30.02F HX 99  
MANASSAS* PTSUNNY 88 74 63 VRB3 30.03F HX 96  
LEESBURG* MOSUNNY 81 72 74 CALM 30.06F  
WINCHESTER MOSUNNY 86 72 62 E6 30.02F  
FRONT ROYAL* FAIR 90 73 58 E6 30.02F HX 98  
LURAY* FAIR 90 68 48 S5 30.03F  

 
 
VAZ048-049-060>072-079>083-072000-  
CENTRAL AND SOUTH CENTRAL VIRGINIA  
 
CITY SKY/WX TMP DP RH WIND PRES REMARKS
 
RICHMOND PTSUNNY 89 70 53 SE10 30.04F  
CHESTERFIELD* MOCLDY 88 70 55 SW8 30.04F  
PETERSBURG* MOSUNNY 88 68 51 S5 30.05F  
HANOVER MOSUNNY 89 69 51 S9 30.05F  
TAPPAHANNOCK* MOSUNNY 90 72 55 S8 30.05F HX 96  
QUINTON* MOCLDY 88 70 55 S3 30.04F  
CHARLOTTSVILLE MOSUNNY 93 67 42 S12 30.03F HX 96  
GORDONSVILLE* MOCLDY 93 67 43 S8 30.02F HX 96  
ORANGE* MOSUNNY 90 70 51 S7 30.02F HX 95  
LOUISA* MOSUNNY 90 70 50 S10 30.07F HX 95  
BUMPASS* FAIR 90 68 48 S7 30.03F  
FARMVILLE* PTSUNNY 87 69 53 SE9 30.03F  
CREWE* FAIR 87 63 43 S6 30.04F  
FORT PICKETT* NOT AVBL  
CHASE CITY* FAIR 88 68 51 SE5 30.05F  
CLARKSVILLE* FAIR 88 70 55 E8 30.04F  
SOUTH HILL* N/A 87 67 51 S6 30.10F  
LAWRENCEVILLE* FAIR 88 65 47 S5 30.05F  
EMPORIA* MOSUNNY 91 68 48 E8 30.05F  

 
 
VAZ088>098-072000-  
SOUTHEAST VIRGINIA  
 
CITY SKY/WX TMP DP RH WIND PRES REMARKS
 
NORFOLK PTSUNNY 89 72 56 SE9 30.04F HX 96  
VIRGINIA BEACH PTSUNNY 86 76 71 S12 30.04F HX 96  
NORFOLK NAVAL PTSUNNY 89 72 56 S6 30.05F HX 96  
WEST POINT* MOSUNNY 88 73 61 SE7 30.06F HX 96  
SALUDA* FAIR 89 72 57 SE7 30.05S HX 96  
NEWPORT NEWS MOSUNNY 89 72 56 E8 30.04F HX 96  
LANGLEY AFB PTSUNNY 87 75 65 E12 30.05F HX 96  
FORT EUSTIS PTSUNNY 89 73 58 S6 30.02F HX 97  
WILLIAMSBURG* N/A N/A N/A N/A MISG 30.04F  
HR EXEC AP* FAIR 90 72 55 S7 30.05F HX 97  
FRANKLIN* PTSUNNY 89 70 52 SE3 30.04F  
US460-WAKEFLD MOSUNNY 91 71 51 VRB6 30.04F HX 97  

 
 
VAZ020-022-025-037-045-072000-  
WEST CENTRAL AND SOUTHWEST VIRGINIA  
 
CITY SKY/WX TMP DP RH WIND PRES REMARKS
 
STAUNTON* MOSUNNY 88 68 51 S8 30.07F  
WAYNESBORO* FAIR 85 69 59 SE6 30.07F  
HOT SPRINGS VA MOSUNNY 80 64 58 S7 30.21F  
LYNCHBURG MOSUNNY 89 67 47 S8 30.07F  
DANVILLE PTSUNNY 88 69 53 VRB5 30.03F  
SOUTH BOSTON* MOCLDY 87 68 52 E5 30.04F  
MARTINSVILLE PTSUNNY 86 71 60 SE6 30.07F  
ROANOKE MOSUNNY 90 67 46 SE7G18 30.07F  
BLACKSBURG MOSUNNY 85 68 55 E6 30.13F  
DUBLIN* MOSUNNY 86 68 53 CALM 30.10F  
MARION* PTSUNNY 82 69 63 SE3 30.14F  
HILLSVILLE* MOSUNNY 79 69 71 S5 30.12F  
RICHLANDS* MOCLDY 78 65 62 CALM 30.12F  
WISE* PTSUNNY 81 61 50 S6 30.13F  
ABINGDON* CLOUDY 82 61 49 CALM 30.09F  

 
 
MDZ021>025-VAZ099-100-072000-  
SOUTHERN MARYLAND AND THE DELMARVA PENINSULA  
 
CITY SKY/WX TMP DP RH WIND PRES REMARKS
 
PATUXENT RIVER MOSUNNY 86 78 77 SE16 30.04F HX 98  
BAY BRIDGE APT MOSUNNY 84 79 84 W5 30.05F HX 96  
LEONARDTOWN NOT AVBL  
DOVER MOSUNNY 84 74 70 E9 30.05F  
GEORGETOWN CLOUDY 84 73 69 S15G23 30.08R  
EASTON PTSUNNY 91 75 59 SW6 30.08F HX 102  
CAMBRIDGE MOSUNNY 88 73 62 S10 30.05S HX 96  
SALISBURY CLOUDY 74 69 85 S17G28 30.08S  
TANGIER FAIR 88 73 61 S10 30.06S HX 96  
OCEAN CITY LGT RAIN 75 71 87 W5 30.09S  
WALLOPS ISLAND CLOUDY 82 75 79 S12 30.08S  
ACCOMACK* NOT AVBL  

 
 
NCZ012>017-030>032-072000-  
NORTH CENTRAL AND EASTERN NORTH CAROLINA  
 
CITY SKY/WX TMP DP RH WIND PRES REMARKS
 
ROANOKE RAPIDS MOCLDY 86 77 74 E5 30.03 HX 97  
RALEIGH CLOUDY 82 72 71 SW16G22 30.05S  
ELIZABETH CITY PTSUNNY 88 77 69 SE13 30.06S HX 100  
AHOSKIE* PTSUNNY 88 69 53 S9 30.04F  
EDENTON* DRIZZLE 77 74 90 CALM 30.07S  
CURRITUCK* PTSUNNY 86 76 70 SE9 30.05F HX 96  
KILL DEVIL HLS PTSUNNY 83 71 66 E9 30.06F  
MANTEO PTSUNNY 85 71 63 S12 30.07F  
CAPE HATTERAS PTSUNNY 91 72 53 S10 30.07F HX 98  
TARBORO* FAIR 84 72 65 S8G16 30.04S  
GOLDSBORO LGT RAIN 76 74 93 E5 30.06R  
WASHINGTON CLOUDY 82 72 70 S7 30.06S  
GREENVILLE CLOUDY 82 72 69 SW12 30.08S  
NEW BERN LGT RAIN 76 74 93 SW7 30.07F  
WILMINGTON LGT RAIN 76 75 97 E3 30.05S  

 
 
VAZ048-072000-  
ELSEWHERE  
 
CITY SKY/WX TMP DP RH WIND PRES REMARKS
 
HARRISBURG PA CLOUDY 80 69 69 VRB5 30.06F  
BALTIMORE MOSUNNY 84 71 65 VRB3 30.04F  
ANNAPOLIS PTSUNNY 82 75 79 SE9 30.05F  
ANDREWS AFB MOSUNNY 85 73 66 CALM 30.04F  
PHILADELPHIA PTSUNNY 86 70 58 SE8 30.05F  
HENDERSON NC CLOUDY 84 67 56 SE7 30.04F  
GREENSBORO CLOUDY 84 70 62 S13 30.04F  
ROCKY MOUNT CLOUDY 86 72 62 VRB7 30.04S  

 
 
VAZ100-072000-  
MARINE  
 
STATION/POSITION TIME TEMP WIND PRES WAVE SWELL
 
AIR SEA DIR/SP/G HT/PER HT/PER  
(UTC) (F) (DEG/KT/KT) (MB) (FT/S) (FT/S)  
CAPE MAY NJ 1830 77 76 1018.2S  
LEWES DE 1830 79 74 1018.6R  
OCEAN-CITY-INLET 1830 75 70 1019.9R  
WACHAPREAGUE VA 1830 82 87 1018.3F  
THOMAS POINT MD 1900 85 81 CALM / 1 1018.5F  
GOOSES REEF MD 1848 82 83 160/ 4/ 6 N/A  
SOLOMONS ISLAND 1830 82 82 1017.3F  
BISHOPS HEAD MD 1830 86 85 1017.7S  
PINEY POINT MD 1830 140/ 13/ 16 N/A  
CAMBRIDGE MD 1830 87 84 1017.6F  
LEWISETTA VA 1830 87 80 1017.3F  
RAPPAHANNOCK LGT 1830 1018.6F  
STINGRAY PT 1854 83 170/ 12/ 14 1021.8F  
YORK RVR RNG VA 1830 81 1018.3F  
YORKTOWN VA 1830 83 81 1017.3F  
DOMINION TERM VA 1830 87 1017.9F  
KIPTOPEKE VA 1830 80 N/A  
CAPE HENRY VA 1830 82 1018.3F  
WILLOUBY STN VA 1830 84 1017.2F  
S CRANEY ISL VA 1830 89 1017.3F  
CAPE HENRY BUOY 1826 80 N/A 2/ 9  
DUCK PIER NC 1830 82 1017.8F  
44100 DUCK FRF 1856 81 N/A 2/ 9  
44056 DUCK FRF 1856 80 N/A 2/ 9  
OREGON INLET NC 1830 84 84 1018.4F  
HATTERAS NC 1830 83 84 1018.7F  
CAPE LOOKOUT NC 1900 79 190/ 7/ 8 1018.4S  

 
 
 
CLICK HERE TO GO TO PREVIOUS BULLETINS.

The Nexlab VA Page
The Nexlab NC Page
The Nexlab MD Page Main Text Page